[Date Prev][Date Next][Thread Prev][Thread Next] - [Date Index][Thread Index][Author Index]
2 LIne ISS Keps 10-30
- Subject: [sarex] 2 LIne ISS Keps 10-30
- From: "Dave Larsen Ph.D." <doc@xxxxxxxxxxx>
- Date: Wed, 30 Oct 2002 00:49:10 -0800
ISS
1 25544U 98067A 02303.13449074 .00031440 00000-0 42146-3 0 3165
2 25544 51.6360 95.3485 0014929 85.5652 257.5672 15.57556035225019
----
Via the sarex mailing list at AMSAT.ORG courtesy of AMSAT-NA.
To unsubscribe, send "unsubscribe sarex" to Majordomo@amsat.org
AMSAT Home